Location: Montreal
(45.5000°N, 73.5833°W)
Time: 16:05:25
(UTC-05:00)

Envisat - Pass Details

Date: 10 October 2017
Orbit: 764 x 766 km, 98.2° (Epoch: 10 December)

Event Time Altitude Azimuth Distance (km) Brightness Sun altitude
Exits shadow 21:07:39 49° 244° (WSW) 987 3.7 -30.2°
Maximum altitude 21:08:04 50° 261° (W) 972 3.7 -30.2°
Drops below altitude 10° 21:13:02 10° 336° (NNW) 2,315 6.0 -31.0°
Sets 21:15:26 0° 342° (NNW) 3,246 6.8 -31.4°
